Location: Moscow
(55.7500°N, 37.5830°E)
Time: 03:35:02
(UTC+03:00)

A-11 Canister half - All Passes

Search period start: 30 November 2021 00:00
Search period end: 10 December 2021 00:00
Orbit: 1516 x 1684 km, 47.2° (Epoch: 29 November)

Date Brightness Start Highest point End Pass type
(mag) Time Alt. Az. Time Alt. Az. Time Alt. Az.
30 Nov - 07:50:01 10° S 07:57:31 26° SE 08:05:10 10° E visible
30 Nov - 09:51:29 10° SW 10:00:43 47° SSE 10:10:11 10° E daylight
30 Nov - 11:55:06 10° WSW 12:04:40 53° S 12:14:22 10° ESE daylight
30 Nov - 13:59:31 10° W 14:08:22 37° SSW 14:17:16 10° SSE daylight
30 Nov - 16:05:53 10° W 16:11:00 15° SW 16:16:07 10° SSW daylight
01 Dec - 07:27:25 10° S 07:34:42 24° SE 07:42:08 10° E visible
01 Dec - 09:28:40 10° SW 09:37:50 46° SSE 09:47:15 10° E daylight
01 Dec - 11:32:13 10° WSW 11:41:46 53° S 11:51:28 10° ESE daylight
01 Dec - 13:36:35 10° W 13:45:30 38° SSW 13:54:30 10° SSE daylight
01 Dec - 15:42:41 10° W 15:48:13 16° SW 15:53:45 10° SSW daylight
02 Dec - 07:04:50 10° S 07:11:54 23° SE 07:19:07 10° E visible
02 Dec - 09:05:52 10° SW 09:14:58 45° SSE 09:24:19 10° E daylight
02 Dec - 11:09:20 10° WSW 11:18:52 53° S 11:28:35 10° ESE daylight
02 Dec - 13:13:39 10° W 13:22:39 39° SSW 13:31:43 10° SE daylight
02 Dec - 15:19:32 10° W 15:25:26 17° SW 15:31:20 10° SSW daylight
03 Dec - 06:42:17 10° S 06:49:06 22° SE 06:56:04 10° E visible
03 Dec - 08:43:04 10° SW 08:52:06 44° SSE 09:01:23 10° E daylight
03 Dec - 10:46:28 10° WSW 10:55:58 53° S 11:05:41 10° ESE daylight
03 Dec - 12:50:44 10° W 12:59:47 40° SSW 13:08:55 10° SE daylight
03 Dec - 14:56:25 10° W 15:02:38 19° SW 15:08:52 10° S daylight
04 Dec - 06:19:45 10° S 06:26:18 21° SE 06:33:00 10° E visible
04 Dec - 08:20:17 10° SW 08:29:14 43° SSE 08:38:26 10° E daylight
04 Dec - 10:23:36 10° WSW 10:33:04 53° S 10:42:47 10° ESE daylight
04 Dec - 12:27:49 10° W 12:36:54 41° SSW 12:46:07 10° SE daylight
04 Dec - 14:33:20 10° W 14:39:50 20° SW 14:46:22 10° S daylight
05 Dec - 05:57:15 10° S 06:03:31 20° SE 06:09:55 10° E visible
05 Dec - 07:57:30 10° SW 08:06:22 41° SSE 08:15:30 10° E visible
05 Dec - 10:00:44 10° WSW 10:10:10 53° S 10:19:52 10° ESE daylight
05 Dec - 12:04:54 10° W 12:14:02 42° SSW 12:23:18 10° SE daylight
05 Dec - 14:10:16 10° W 14:17:01 21° SW 14:23:50 10° S daylight
06 Dec - 05:34:47 10° S 05:40:44 18° SE 05:46:48 10° E visible
06 Dec - 07:34:45 10° SW 07:43:31 40° SSE 07:52:33 10° E visible
06 Dec - 09:37:52 10° WSW 09:47:17 53° S 09:56:58 10° ESE daylight
06 Dec - 11:42:01 10° W 11:51:10 43° SSW 12:00:28 10° SE daylight
06 Dec - 13:47:14 10° W 13:54:13 22° SW 14:01:16 10° S daylight
07 Dec - 05:12:21 10° SSE 05:17:58 17° SE 05:23:40 10° E visible
07 Dec - 07:12:00 10° SW 07:20:39 39° SSE 07:29:36 10° E visible
07 Dec - 09:15:01 10° WSW 09:24:23 53° S 09:34:03 10° ESE daylight
07 Dec - 11:19:06 10° W 11:28:17 44° SSW 11:37:39 10° SE daylight
07 Dec - 13:24:12 10° W 13:31:24 23° SW 13:38:41 10° S daylight
08 Dec - 04:49:58 10° SSE 04:55:12 16° SE 05:00:29 10° E visible
08 Dec - 06:49:15 10° SW 06:57:49 38° SSE 07:06:39 10° E visible
08 Dec - 08:52:09 10° WSW 09:01:30 53° S 09:11:08 10° ESE daylight
08 Dec - 10:56:13 10° W 11:05:24 45° SSW 11:14:48 10° SE daylight
08 Dec - 13:01:12 10° W 13:08:35 24° SW 13:16:03 10° S daylight
09 Dec - 04:27:39 10° SSE 04:32:25 15° SE 04:37:16 10° E visible
09 Dec - 06:26:30 10° SSW 06:34:58 37° SSE 06:43:42 10° E visible
09 Dec - 08:29:18 10° WSW 08:38:36 52° S 08:48:12 10° ESE daylight
09 Dec - 10:33:19 10° W 10:42:32 46° SSW 10:51:57 10° SE daylight
09 Dec - 12:38:13 10° W 12:45:46 25° SW 12:53:26 10° S daylight
